sat.trackr.live / text

‹ back to catalog

STARLINK-33999

NORAD 63857 · 2025-093X

PAYLOAD ACTIVE UNKNOWN

§ Identity

Operator
Country
US
Launch date
2025-05-07
Launch site
AFETR
Launch vehicle
Mass (kg)
RCS (m²)

Purposes: comms

External: N2YO · Heavens-Above · Gunter

§ Orbital elements

Epoch: 2026-09-20T09:50:58.322400Z

Period
94.27 min
Inclination
43.0021°
Eccentricity
0.0000983
Mean motion
15.27582591 rev/d
Perigee alt
482.4 km
Apogee alt
483.7 km
Semi-major
6,861.2 km
B*
4.4777e-4
RAAN
58.0606°
Arg perigee
271.4393°
Mean anomaly
88.6346°
Rev number
7,775

§ Raw data

STARLINK-339991 63857U 25093X   26263.41039725  .00012081  00000+0  44777-3 0  99912 63857  43.0021  58.0606 0000983 271.4393  88.6346 15.27582591 77751

JSON: /api/v1/satellites/63857 · /tle

For live sub-satellite position, see the globe view (requires WebGL).

§ Visibility from observer

Set your observer location to see the next 7 days of passes ≥ 10°. The values pass through the URL so the page stays shareable.

No JS? Fill the form by hand. The geolocation button needs JavaScript.